Weather History for Nagpur Sonegaon, India

Change the Weather History Date:

Saturday, April 5, 2014

  Actual Average Record
Temperature  
Mean Temperature 86 °F -  
Max Temperature 105 °F 106 °F - ()
Min Temperature 68 °F 77 °F - ()
Cooling Degree Days 22    
Growing Degree Days 36 (Base 50)    
Moisture  
Dew Point 46 °F    
Average Humidity 22    
Maximum Humidity 46    
Minimum Humidity 8    
Precipitation  
Precipitation 0.00 in 0.01 in - ()
Sea Level Pressure  
Sea Level Pressure 29.84 in    
Wind  
Wind Speed 3 mph ()    
Max Wind Speed 9 mph    
Max Gust Speed -    
Visibility 3.1 miles    
Events      
T = Trace of Precipitation, MM = Missing Value Source: Averaged Metar Reports

Daily Weather History Graph

Daily Weather History Graph

Search for Another Location

Airport:

Trip Planner

Search our weather history database for the weather conditions in past years. The results will help you decide how hot, cold, wet, or windy it might be!

Date:

Astronomy

Apr. 05, 2014 Rise Set
Actual Time 6:03 AM IST 6:29 PM IST
Civil Twilight 5:41 AM IST 6:51 PM IST
Nautical Twilight 5:15 AM IST 7:18 PM IST
Astronomical Twilight 4:48 AM IST 7:44 PM IST
Moon 10:13 AM IST (4/5) 11:40 PM IST (4/5)
Length of Visible Light 13h 10m
Length of Day
12h 25m
Waxing Crescent, 30% of the Moon is Illuminated
Apr 5
Waxing Crescent
Apr 7
First Quarter
Apr 15
Full
Apr 22
Last Quarter
Apr 29
New

Hourly Weather History & Observations

Time (IST) Temp. Dew Point Humidity Pressure Visibility Wind Dir Wind Speed Gust Speed Precip Events Conditions
12:40 AM 80.6 °F 50.0 °F 34% 29.86 in 3.1 mi NE 3.5 mph - N/A   Haze
1:10 AM 80.6 °F 42.8 °F 26% 29.86 in 3.1 mi NNE 2.3 mph - N/A   Haze
1:40 AM 80.6 °F 42.8 °F 26% 29.86 in 3.1 mi NNE 2.3 mph - N/A   Haze
2:10 AM 80.6 °F 42.8 °F 26% 29.86 in 3.1 mi North 2.3 mph - N/A   Haze
2:30 AM 75 °F 52 °F 33% 29.83 in 2 mi NW 3.5 mph - -   Haze
3:10 AM 75.2 °F 44.6 °F 34% 29.83 in 3.1 mi North 2.3 mph - N/A   Haze
4:10 AM 69.8 °F 44.6 °F 40% 29.86 in 3.1 mi WSW 2.3 mph - N/A   Haze
5:10 AM 69.8 °F 46.4 °F 43% 29.86 in 3.1 mi Calm Calm - N/A   Haze
5:30 AM 70 °F 52 °F 43% 29.83 in 2 mi NW 4.6 mph - -   Haze
6:10 AM 68.0 °F 46.4 °F 46% 29.89 in 3.1 mi NW 2.3 mph - N/A   Haze
6:40 AM 69.8 °F 48.2 °F 46% 29.89 in 3.1 mi North 2.3 mph - N/A   Haze
7:10 AM 77.0 °F 48.2 °F 36% 29.92 in 3.1 mi NNW 2.3 mph - N/A   Haze
7:40 AM 84.2 °F 48.2 °F 29% 29.92 in 3.1 mi Calm Calm - N/A   Haze
8:10 AM 87.8 °F 48.2 °F 25% 29.92 in 3.1 mi East 3.5 mph - N/A   Haze
8:30 AM 85 °F 52 °F 22% 29.86 in 2 mi NNE 2.3 mph - -   Haze
8:40 AM 93.2 °F 50.0 °F 23% 29.92 in 3.1 mi NNE 2.3 mph - N/A   Haze
9:10 AM 93.2 °F 46.4 °F 20% 29.92 in 3.1 mi East 4.6 mph - N/A   Haze
9:40 AM 96.8 °F 48.2 °F 19% 29.92 in 3.7 mi ESE 3.5 mph - N/A   Unknown
10:10 AM 98.6 °F 48.2 °F 18% 29.92 in 3.7 mi South 3.5 mph - N/A   Unknown
10:40 AM 100.4 °F 48.2 °F 17% 29.92 in 3.7 mi South 5.8 mph - N/A   Unknown
11:10 AM 102.2 °F 46.4 °F 15% 29.92 in 3.7 mi ESE 3.5 mph - N/A   Unknown
11:30 AM 100 °F 46 °F 9% 29.82 in 2 mi East 5.8 mph - -  
11:40 AM 104.0 °F 46.4 °F 14% 29.89 in 3.7 mi SSE 2.3 mph - N/A   Unknown
12:10 PM 104.0 °F 44.6 °F 13% 29.89 in 3.7 mi SSW 6.9 mph - N/A   Unknown
12:40 PM 105.8 °F 46.4 °F 14% 29.86 in 3.7 mi SSW 9.2 mph - N/A   Unknown
1:10 PM 105.8 °F 42.8 °F 12% 29.83 in 3.7 mi WSW 6.9 mph - N/A   Unknown
1:40 PM 105.8 °F 44.6 °F 13% 29.83 in 3.7 mi WNW 4.6 mph - N/A   Unknown
2:10 PM 107.6 °F 48.2 °F 14% 29.80 in 3.7 mi NW 8.1 mph - N/A   Unknown
2:30 PM 105 °F 49 °F 8% 29.72 in 2 mi NNW 9.2 mph - -  
2:40 PM 107.6 °F 44.6 °F 12% 29.80 in 3.7 mi WNW 8.1 mph - N/A   Unknown
3:10 PM 107.6 °F 46.4 °F 13% 29.77 in 3.7 mi NNE 3.5 mph - N/A   Unknown
3:40 PM 107.6 °F 46.4 °F 13% 29.77 in 3.7 mi NNW 6.9 mph - N/A   Unknown
4:10 PM 107.6 °F 42.8 °F 11% 29.77 in 3.7 mi North 3.5 mph - N/A   Unknown
4:40 PM 105.8 °F 41.0 °F 11% 29.74 in 3.7 mi WNW 6.9 mph - N/A   Unknown
5:10 PM 105.8 °F 41.0 °F 11% 29.74 in 3.7 mi WSW 5.8 mph - N/A   Unknown
5:30 PM 100 °F 49 °F 10% 29.69 in 2 mi SW 3.5 mph - -  
5:40 PM 102.2 °F 46.4 °F 15% 29.74 in 3.7 mi SW 5.8 mph - N/A   Unknown
6:10 PM 98.6 °F 46.4 °F 17% 29.77 in 3.1 mi SW 5.8 mph - N/A   Haze
6:40 PM 95.0 °F 46.4 °F 19% 29.77 in 3.1 mi SW 4.6 mph - N/A   Haze
7:10 PM 91.4 °F 44.6 °F 20% 29.80 in 3.1 mi SW 4.6 mph - N/A   Haze
7:40 PM 89.6 °F 44.6 °F 21% 29.80 in 3.1 mi SW 3.5 mph - N/A   Haze
8:10 PM 91.4 °F 44.6 °F 20% 29.80 in 3.1 mi SW 4.6 mph - N/A   Haze
8:30 PM 84 °F 53 °F 24% 29.78 in 1 mi WSW 4.6 mph - -   Haze
8:40 PM 91.4 °F 46.4 °F 21% 29.83 in 3.1 mi WSW 4.6 mph - N/A   Haze
9:40 PM 86.0 °F 44.6 °F 23% 29.83 in 3.1 mi West 3.5 mph - N/A   Haze
10:10 PM 84.2 °F 44.6 °F 25% 29.83 in 3.1 mi NNW 3.5 mph - N/A   Haze
10:40 PM 84.2 °F 44.6 °F 25% 29.83 in 3.1 mi NNW 3.5 mph - N/A   Haze
11:10 PM 84.2 °F 44.6 °F 25% 29.86 in 3.1 mi NNW 4.6 mph - N/A   Haze
11:30 PM 81 °F 51 °F 24% 29.81 in 1 mi NW 3.5 mph - -   Haze
11:40 PM 86.0 °F 42.8 °F 22% 29.83 in 3.1 mi NW 3.5 mph - N/A   Haze